Location: *
(40.7765°S, 106.5327°E)
Time: 12:49:32
(UTC+00:00)

DMSP B5D2-2 - Visible Passes

Search period start: 26 September 2022 00:00
Search period end: 06 October 2022 00:00
Orbit: 790 x 805 km, 98.3° (Epoch: 25 September)

Date Brightness Start Highest point End Pass type
(mag) Time Alt. Az. Time Alt. Az. Time Alt. Az.
28 Sep 7.3 11:35:06 10° WNW 11:37:59 15° W 11:40:53 10° WSW visible
29 Sep 7.3 21:41:08 10° ESE 21:44:00 15° E 21:46:52 10° ENE visible
02 Oct 7.1 11:24:27 10° NW 11:27:59 18° W 11:31:33 10° SW visible
02 Oct 7.0 21:57:41 10° SE 22:01:43 22° E 22:05:41 10° NE visible
03 Oct 7.5 21:32:10 10° ESE 21:34:00 12° E 21:35:50 10° ENE visible
05 Oct 7.5 11:43:46 10° WNW 11:45:42 12° W 11:47:39 10° WSW visible
